Location: Brusselsch Zeekanaal
(50.8667°N, 4.3667°E)
Time: 10:24:02
(UTC+00:00)

SJ 16-02 - Pass Details

Date: 08 November 2025
Orbit: 585 x 594 km, 75.0° (Epoch: 12 December)

Event Time Altitude Azimuth Distance (km) Brightness Sun altitude
Exits shadow 06:02:05 - 333° (NNW) 2,886 4.4 -7.4°
Rises 06:02:11 0° 333° (NNW) 2,845 4.3 -7.4°
Reaches altitude 10° 06:04:28 10° 329° (NNW) 1,936 3.5 -7.0°
Maximum altitude 06:08:39 52° 253° (WSW) 744 1.5 -6.4°
Drops below altitude 10° 06:12:47 10° 178° (S) 1,914 4.2 -5.8°
Sets 06:15:02 0° 173° (S) 2,808 5.1 -5.4°
